Back to catalog

COSMOS 2439

AliveNavigationPO
NORAD 32956·PAYLOAD·🇷🇺 Russia

Launched May 23, 2008 from Plesetsk Cosmodrome

Loading…

Next Passes (next 24 hours)

TLE

FreshSource: Space-Track

Epoch: Sep 14, 2026, 14:10 UTC

1 32956U 08025D   26257.59057297  .00000061  00000-0  36847-3 0  9994
2 32956  82.5057 302.2300 0022023 118.7516 241.5780 12.43071946830827

Track COSMOS 2439 in real time with AllMySat

Download on the App Store